Location: Unspecified
(0.0000°N, 0.0000°E)
Time: 13:56:02
(UTC+00:00)

A-11 Canister half - Visible Passes

Search period start: 21 February 2019 00:00
Search period end: 03 March 2019 00:00
Orbit: 1526 x 1683 km, 47.3° (Epoch: 20 February)

Date Brightness Start Highest point End Pass type
(mag) Time Alt. Az. Time Alt. Az. Time Alt. Az.
21 Feb 10.7 20:51:11 10° NNW 20:52:36 15° N 20:52:36 15° N visible
22 Feb 10.3 20:29:45 10° NNW 20:32:54 21° N 20:32:54 21° N visible
23 Feb 9.9 20:08:20 10° N 20:13:19 27° NNE 20:13:19 27° NNE visible
24 Feb 9.7 19:46:55 10° N 19:53:52 30° NE 19:53:52 30° NE visible
24 Feb 10.8 21:50:25 10° NW 21:52:15 17° WNW 21:52:15 17° WNW visible
25 Feb 9.7 19:25:33 10° N 19:33:10 28° NE 19:34:34 27° ENE visible
25 Feb 10.2 21:28:45 10° NW 21:32:58 30° WNW 21:32:58 30° WNW visible
26 Feb 9.8 19:04:11 10° N 19:11:32 26° NE 19:15:27 20° E visible
26 Feb 9.5 21:07:05 10° NW 21:13:51 50° WNW 21:13:51 50° WNW visible
27 Feb 9.9 18:42:51 10° N 18:49:54 24° NE 18:56:31 11° E visible
27 Feb 9.0 20:45:26 10° NW 20:54:47 70° SW 20:54:57 70° SW visible
28 Feb 9.0 20:23:48 10° NW 20:33:09 75° SW 20:36:13 49° SSE visible
28 Feb 11.3 22:34:26 10° WSW 22:34:40 10° WSW 22:34:40 10° WSW visible
01 Mar 9.0 20:02:10 10° NW 20:11:32 80° SW 20:17:42 26° SSE visible
01 Mar 11.0 22:12:07 10° WSW 22:16:10 15° SW 22:16:10 15° SW visible
02 Mar 9.0 19:40:34 10° NW 19:49:56 85° SW 19:59:24 11° SE visible
02 Mar 11.0 21:49:55 10° W 21:55:16 16° SW 21:57:53 14° SSW visible
